Starlink 3324

operational
NORAD ID: 50814 Int'l Des: 2022-001 Owner: SPXS Country: US Constellation: starlink
LEOCIRCULAR

关于 Starlink 3324

正在加载描述...

实时位置

正在加载3D地球...

即将过境

高度历史

Altitude vs Time

uPlot chart will show altitude changes over time

两行轨道根数

1 50814U 22001M 25302.74978393 .00004089 00000-0 27480-3 0 9990
2 50814 53.2179 36.9310 0001333 82.2970 277.8173 15.08846318210649
Epoch: Oct 29, 2025 • Age: 12 hours

当前状态

高度 558.1 km
速度 7.58 km/s
星下点 -50.64°S, 147.14°E
发射日期 Jan 6, 2022
运行时间 3.8 years
类型 internet

技术详情

分类 Payload
质量 297.00 kg
干质量 275.00 kg
总质量 297.00 kg
长度 0.20 m
直径 2.80 m
跨度 9.00 m
形状 Box + pan
制造商 SPXS
平台类型 Starlink
阶段状态 In Orbit
所有者/国家 SPXS/US

大型星座

Loading constellations...